| time (UTC) | temp C | wind direction | speed KPH | gust KPH | rain 1hr cm | rain 24hr cm | rain mn cm | humidity % | barometer mb |
| 20260506213050 | 21 | 214 | 11.3 | 19.3 | 0.00 | 0.00 | 0.00 | 62 | 1018.4 |
| 20260506212527 | 22 | 217 | 6.4 | 19.3 | 0.00 | 0.00 | 0.00 | 60 | 1018.5 |
| 20260506212030 | 22 | 280 | 8.0 | 24.1 | 0.00 | 0.00 | 0.00 | 61 | 1018.5 |
| 20260506211549 | 21 | 286 | 9.7 | 24.1 | 0.00 | 0.00 | 0.00 | 62 | 1018.5 |
| 20260506211027 | 21 | 258 | 9.7 | 22.5 | 0.00 | 0.00 | 0.00 | 60 | 1018.5 |
| 20260506210527 | 21 | 333 | 9.7 | 22.5 | 0.00 | 0.00 | 0.00 | 62 | 1018.4 |
| 20260506210046 | 21 | 187 | 9.7 | 19.3 | 0.00 | 0.00 | 0.00 | 61 | 1018.5 |
| 20260506205526 | 21 | 196 | 3.2 | 17.7 | 0.00 | 0.00 | 0.00 | 61 | 1018.5 |
| 20260506205026 | 21 | 261 | 1.6 | 12.9 | 0.00 | 0.00 | 0.00 | 60 | 1018.6 |
| 20260506204538 | 21 | 260 | 6.4 | 12.9 | 0.00 | 0.00 | 0.00 | 61 | 1018.7 |
| 20260506204026 | 21 | 285 | 4.8 | 12.9 | 0.00 | 0.00 | 0.00 | 61 | 1018.7 |
| 20260506203527 | 21 | 318 | 3.2 | 12.9 | 0.00 | 0.00 | 0.00 | 62 | 1018.8 |
| 20260506203038 | 21 | 320 | 4.8 | 12.9 | 0.00 | 0.00 | 0.00 | 60 | 1018.9 |
| 20260506202527 | 21 | 346 | 3.2 | 12.9 | 0.00 | 0.00 | 0.00 | 61 | 1019.0 |
| 20260506202027 | 21 | 317 | 4.8 | 12.9 | 0.00 | 0.00 | 0.00 | 62 | 1019.0 |
| 20260506201540 | 20 | 286 | 4.8 | 12.9 | 0.00 | 0.00 | 0.00 | 62 | 1019.1 |
| 20260506201026 | 20 | 348 | 4.8 | 12.9 | 0.00 | 0.00 | 0.00 | 63 | 1019.1 |
| 20260506200527 | 20 | 280 | 4.8 | 12.9 | 0.00 | 0.00 | 0.00 | 61 | 1019.1 |
| 20260506200045 | 20 | 17 | 3.2 | 12.9 | 0.00 | 0.00 | 0.00 | 62 | 1019.1 |
| 20260506195527 | 20 | 311 | 6.4 | 12.9 | 0.00 | 0.00 | 0.00 | 62 | 1019.2 |
| 20260506195027 | 20 | 323 | 3.2 | 11.3 | 0.00 | 0.00 | 0.00 | 63 | 1019.2 |
| 20260506194543 | 20 | 286 | 1.6 | 12.9 | 0.00 | 0.00 | 0.00 | 64 | 1019.3 |
| 20260506194027 | 20 | 332 | 6.4 | 12.9 | 0.00 | 0.00 | 0.00 | 63 | 1019.3 |
| 20260506193526 | 20 | 322 | 3.2 | 12.9 | 0.00 | 0.00 | 0.00 | 64 | 1019.3 |
| 20260506193047 | 19 | 248 | 6.4 | 14.5 | 0.00 | 0.00 | 0.00 | 63 | 1019.4 |
| 20260506192526 | 19 | 261 | 4.8 | 14.5 | 0.00 | 0.00 | 0.00 | 65 | 1019.5 |
| 20260506192027 | 19 | 257 | 4.8 | 14.5 | 0.00 | 0.00 | 0.00 | 65 | 1019.5 |
| 20260506191538 | 18 | 0 | 3.2 | 11.3 | 0.00 | 0.00 | 0.00 | 67 | 1019.6 |
| 20260506191027 | 19 | 236 | 4.8 | 11.3 | 0.00 | 0.00 | 0.00 | 66 | 1019.6 |
| 20260506190527 | 18 | 293 | 1.6 | 11.3 | 0.00 | 0.00 | 0.00 | 67 | 1019.7 |
| 20260506190040 | 18 | 264 | 3.2 | 12.9 | 0.00 | 0.00 | 0.00 | 66 | 1019.6 |
| 20260506185527 | 18 | 232 | 4.8 | 12.9 | 0.00 | 0.00 | 0.00 | 68 | 1019.7 |
| 20260506185027 | 18 | 260 | 4.8 | 12.9 | 0.00 | 0.00 | 0.00 | 69 | 1019.7 |
| 20260506184539 | 17 | 201 | 3.2 | 14.5 | 0.00 | 0.00 | 0.00 | 69 | 1019.9 |
| 20260506184027 | 18 | 234 | 6.4 | 14.5 | 0.00 | 0.00 | 0.00 | 68 | 1019.9 |
| 20260506183527 | 18 | 278 | 3.2 | 14.5 | 0.00 | 0.00 | 0.00 | 68 | 1019.9 |
| 20260506183041 | 18 | 205 | 3.2 | 14.5 | 0.00 | 0.00 | 0.00 | 69 | 1020.0 |
| 20260506182526 | 18 | 213 | 3.2 | 14.5 | 0.00 | 0.00 | 0.00 | 68 | 1020.0 |
| 20260506182026 | 18 | 261 | 6.4 | 14.5 | 0.00 | 0.00 | 0.00 | 68 | 1020.1 |
| 20260506181555 | 18 | 234 | 4.8 | 14.5 | 0.00 | 0.00 | 0.00 | 67 | 1020.0 |
| 20260506181027 | 18 | 245 | 4.8 | 16.1 | 0.00 | 0.00 | 0.00 | 67 | 1020.0 |
| 20260506180527 | 18 | 227 | 8.0 | 16.1 | 0.00 | 0.00 | 0.00 | 69 | 1020.0 |
| 20260506180041 | 17 | 5 | 4.8 | 12.9 | 0.00 | 0.00 | 0.00 | 69 | 1020.0 |
| 20260506175529 | 17 | 265 | 4.8 | 12.9 | 0.00 | 0.00 | 0.00 | 69 | 1019.9 |
| 20260506175026 | 17 | 271 | 3.2 | 12.9 | 0.00 | 0.00 | 0.00 | 69 | 1020.0 |
| 20260506174539 | 17 | 253 | 4.8 | 12.9 | 0.00 | 0.00 | 0.00 | 71 | 1020.0 |
| 20260506174030 | 17 | 252 | 3.2 | 11.3 | 0.00 | 0.00 | 0.00 | 71 | 1020.0 |
| 20260506173529 | 17 | 234 | 3.2 | 11.3 | 0.00 | 0.00 | 0.00 | 69 | 1020.1 |
| 20260506173103 | 17 | 221 | 3.2 | 12.9 | 0.00 | 0.00 | 0.00 | 71 | 1019.9 |
| 20260506172527 | 17 | 222 | 4.8 | 12.9 | 0.00 | 0.00 | 0.00 | 71 | 1020.0 |
| 20260506172028 | 17 | 265 | 3.2 | 11.3 | 0.00 | 0.00 | 0.00 | 71 | 1020.0 |
| 20260506171542 | 16 | 236 | 3.2 | 11.3 | 0.00 | 0.00 | 0.00 | 72 | 1020.0 |
| 20260506171028 | 16 | 304 | 1.6 | 6.4 | 0.00 | 0.00 | 0.00 | 72 | 1020.0 |
| 20260506170528 | 16 | 266 | 1.6 | 8.0 | 0.00 | 0.00 | 0.00 | 72 | 1020.2 |
| 20260506170100 | 16 | 305 | 1.6 | 8.0 | 0.00 | 0.00 | 0.00 | 73 | 1020.2 |
| 20260506165528 | 16 | 191 | 0.0 | 4.8 | 0.00 | 0.13 | 0.00 | 73 | 1020.2 |
| 20260506165027 | 16 | 217 | 1.6 | 9.7 | 0.00 | 0.13 | 0.00 | 74 | 1020.2 |
| 20260506164551 | 15 | 249 | 1.6 | 9.7 | 0.00 | 0.13 | 0.00 | 74 | 1020.2 |
| 20260506164027 | 15 | 234 | 0.0 | 11.3 | 0.00 | 0.13 | 0.00 | 76 | 1020.2 |
| 20260506163527 | 15 | 276 | 4.8 | 11.3 | 0.00 | 0.13 | 0.00 | 74 | 1020.3 |
| 20260506163050 | 15 | 0 | 1.6 | 9.7 | 0.00 | 0.13 | 0.00 | 75 | 1020.3 |
| 20260506162527 | 15 | 269 | 3.2 | 6.4 | 0.00 | 0.13 | 0.00 | 75 | 1020.3 |
| 20260506162027 | 15 | 266 | 1.6 | 6.4 | 0.00 | 0.13 | 0.00 | 75 | 1020.3 |
| 20260506161540 | 15 | 0 | 0.0 | 6.4 | 0.00 | 0.13 | 0.00 | 76 | 1020.2 |
| 20260506161028 | 15 | 74 | 0.0 | 3.2 | 0.00 | 0.13 | 0.00 | 76 | 1020.2 |
| 20260506160527 | 15 | 24 | 0.0 | 6.4 | 0.00 | 0.13 | 0.00 | 76 | 1020.2 |
| 20260506160042 | 15 | 0 | 0.0 | 6.4 | 0.00 | 0.13 | 0.00 | 76 | 1020.2 |
| 20260506155527 | 15 | 74 | 1.6 | 6.4 | 0.00 | 0.13 | 0.00 | 77 | 1020.3 |
| 20260506155027 | 15 | 58 | 0.0 | 6.4 | 0.00 | 0.13 | 0.00 | 77 | 1020.2 |
| 20260506154604 | 14 | 55 | 1.6 | 6.4 | 0.00 | 0.13 | 0.00 | 77 | 1020.2 |
| 20260506154027 | 14 | 0 | 1.6 | 6.4 | 0.00 | 0.13 | 0.00 | 77 | 1020.2 |
| 20260506153526 | 14 | 0 | 0.0 | 3.2 | 0.00 | 0.13 | 0.00 | 78 | 1020.3 |
| 20260506153040 | 14 | 0 | 0.0 | 4.8 | 0.00 | 0.13 | 0.00 | 78 | 1020.3 |
| 20260506152526 | 14 | 53 | 0.0 | 4.8 | 0.00 | 0.13 | 0.00 | 78 | 1020.3 |
| 20260506152027 | 14 | 0 | 1.6 | 4.8 | 0.00 | 0.13 | 0.00 | 78 | 1020.3 |
| 20260506151541 | 14 | 327 | 0.0 | 3.2 | 0.00 | 0.13 | 0.00 | 79 | 1020.2 |
| 20260506151027 | 14 | 45 | 0.0 | 4.8 | 0.00 | 0.13 | 0.00 | 79 | 1020.2 |
| 20260506150526 | 13 | 54 | 0.0 | 6.4 | 0.00 | 0.13 | 0.00 | 79 | 1020.2 |
| 20260506150039 | 13 | 0 | 1.6 | 6.4 | 0.00 | 0.13 | 0.00 | 79 | 1020.3 |
| 20260506145530 | 14 | 26 | 1.6 | 4.8 | 0.00 | 0.13 | 0.00 | 79 | 1020.2 |
| 20260506145028 | 13 | 22 | 1.6 | 3.2 | 0.00 | 0.13 | 0.00 | 79 | 1020.2 |
| 20260506144544 | 13 | 0 | 0.0 | 3.2 | 0.00 | 0.13 | 0.00 | 79 | 1020.2 |
| 20260506144027 | 13 | 15 | 0.0 | 3.2 | 0.00 | 0.13 | 0.00 | 79 | 1020.1 |
| 20260506143527 | 13 | 0 | 0.0 | 4.8 | 0.00 | 0.13 | 0.00 | 80 | 1020.1 |
| 20260506143043 | 13 | 10 | 0.0 | 4.8 | 0.00 | 0.13 | 0.00 | 80 | 1020.0 |
| 20260506142527 | 13 | 33 | 1.6 | 4.8 | 0.00 | 0.13 | 0.00 | 80 | 1020.0 |
| 20260506142026 | 13 | 0 | 0.0 | 4.8 | 0.00 | 0.13 | 0.00 | 80 | 1020.0 |
| 20260506141539 | 13 | 27 | 1.6 | 4.8 | 0.00 | 0.13 | 0.00 | 80 | 1019.9 |
| 20260506141027 | 13 | 0 | 0.0 | 3.2 | 0.00 | 0.13 | 0.00 | 80 | 1019.9 |
| 20260506140527 | 13 | 0 | 0.0 | 4.8 | 0.00 | 0.13 | 0.00 | 81 | 1019.9 |
| 20260506140040 | 13 | 0 | 0.0 | 4.8 | 0.00 | 0.13 | 0.00 | 81 | 1019.8 |
| 20260506135526 | 13 | 11 | 1.6 | 4.8 | 0.00 | 0.13 | 0.00 | 80 | 1019.8 |
| 20260506135029 | 13 | 0 | 0.0 | 4.8 | 0.00 | 0.13 | 0.00 | 81 | 1019.8 |
| 20260506134539 | 13 | 38 | 1.6 | 4.8 | 0.00 | 0.13 | 0.00 | 80 | 1019.7 |
| 20260506134026 | 13 | 5 | 0.0 | 4.8 | 0.00 | 0.13 | 0.00 | 80 | 1019.6 |
| 20260506133527 | 13 | 355 | 0.0 | 4.8 | 0.00 | 0.13 | 0.00 | 80 | 1019.5 |
| 20260506133052 | 13 | 0 | 1.6 | 4.8 | 0.00 | 0.13 | 0.00 | 80 | 1019.4 |
| 20260506132527 | 13 | 355 | 0.0 | 3.2 | 0.00 | 0.13 | 0.00 | 80 | 1019.4 |
| 20260506132030 | 13 | 334 | 1.6 | 4.8 | 0.00 | 0.13 | 0.00 | 80 | 1019.4 |
| 20260506131537 | 13 | 316 | 0.0 | 4.8 | 0.00 | 0.13 | 0.00 | 80 | 1019.4 |
| 20260506131027 | 13 | 306 | 1.6 | 4.8 | 0.00 | 0.13 | 0.00 | 80 | 1019.3 |
| 20260506130531 | 13 | 303 | 1.6 | 4.8 | 0.00 | 0.13 | 0.00 | 81 | 1019.2 |
| 20260506130038 | 13 | 9 | 1.6 | 4.8 | 0.00 | 0.13 | 0.00 | 81 | 1019.3 |
| 20260506125526 | 13 | 336 | 0.0 | 1.6 | 0.00 | 0.13 | 0.00 | 81 | 1019.2 |
| 20260506125027 | 13 | 0 | 0.0 | 3.2 | 0.00 | 0.13 | 0.00 | 81 | 1019.1 |
| 20260506124540 | 13 | 0 | 0.0 | 3.2 | 0.00 | 0.13 | 0.00 | 81 | 1019.1 |
| 20260506124027 | 13 | 0 | 0.0 | 3.2 | 0.00 | 0.13 | 0.00 | 81 | 1019.0 |
| 20260506123526 | 13 | 0 | 0.0 | 1.6 | 0.00 | 0.13 | 0.00 | 81 | 1019.0 |
| 20260506123040 | 13 | 0 | 0.0 | 4.8 | 0.00 | 0.13 | 0.00 | 81 | 1018.9 |
| 20260506122527 | 13 | 355 | 0.0 | 4.8 | 0.00 | 0.13 | 0.00 | 81 | 1019.0 |
| 20260506122030 | 13 | 12 | 0.0 | 4.8 | 0.00 | 0.13 | 0.00 | 81 | 1018.9 |
| 20260506121538 | 13 | 0 | 0.0 | 4.8 | 0.00 | 0.13 | 0.00 | 81 | 1018.9 |
| 20260506121027 | 13 | 360 | 1.6 | 4.8 | 0.00 | 0.13 | 0.00 | 81 | 1018.9 |
| 20260506120527 | 13 | 28 | 0.0 | 4.8 | 0.00 | 0.13 | 0.00 | 81 | 1018.8 |
| 20260506120044 | 13 | 10 | 1.6 | 4.8 | 0.00 | 0.13 | 0.00 | 80 | 1018.8 |
| 20260506115527 | 13 | 0 | 0.0 | 3.2 | 0.00 | 0.15 | 0.00 | 80 | 1018.8 |
| 20260506115026 | 13 | 11 | 0.0 | 3.2 | 0.00 | 0.15 | 0.00 | 80 | 1018.8 |
| 20260506114547 | 13 | 348 | 0.0 | 4.8 | 0.00 | 0.15 | 0.00 | 80 | 1018.7 |
| 20260506114027 | 13 | 0 | 0.0 | 4.8 | 0.00 | 0.15 | 0.00 | 80 | 1018.8 |
| 20260506113530 | 13 | 342 | 0.0 | 4.8 | 0.00 | 0.15 | 0.00 | 80 | 1018.8 |
| 20260506113041 | 13 | 0 | 0.0 | 3.2 | 0.00 | 0.15 | 0.00 | 80 | 1018.7 |
| 20260506112527 | 13 | 0 | 0.0 | 4.8 | 0.00 | 0.15 | 0.00 | 80 | 1018.6 |
| 20260506112026 | 13 | 314 | 0.0 | 4.8 | 0.00 | 0.15 | 0.00 | 80 | 1018.6 |
| 20260506111539 | 13 | 0 | 0.0 | 4.8 | 0.00 | 0.15 | 0.00 | 80 | 1018.5 |
| 20260506111026 | 13 | 0 | 0.0 | 4.8 | 0.00 | 0.15 | 0.00 | 80 | 1018.5 |
| 20260506110526 | 13 | 0 | 0.0 | 3.2 | 0.00 | 0.15 | 0.00 | 80 | 1018.5 |
| 20260506110043 | 13 | 323 | 0.0 | 3.2 | 0.00 | 0.15 | 0.00 | 81 | 1018.5 |
| 20260506105527 | 13 | 349 | 0.0 | 3.2 | 0.00 | 0.20 | 0.00 | 81 | 1018.5 |
| 20260506105026 | 13 | 0 | 0.0 | 3.2 | 0.00 | 0.20 | 0.00 | 82 | 1018.5 |
| 20260506104559 | 13 | 0 | 0.0 | 3.2 | 0.00 | 0.20 | 0.00 | 82 | 1018.4 |
| 20260506104031 | 13 | 0 | 0.0 | 3.2 | 0.00 | 0.20 | 0.00 | 82 | 1018.4 |
| 20260506103531 | 13 | 340 | 0.0 | 3.2 | 0.00 | 0.20 | 0.00 | 82 | 1018.3 |
| 20260506103040 | 13 | 0 | 0.0 | 3.2 | 0.00 | 0.20 | 0.00 | 82 | 1018.3 |
| 20260506102529 | 13 | 0 | 0.0 | 3.2 | 0.00 | 0.20 | 0.00 | 82 | 1018.4 |
| 20260506102027 | 13 | 15 | 0.0 | 3.2 | 0.00 | 0.20 | 0.00 | 82 | 1018.3 |
| 20260506101547 | 13 | 26 | 0.0 | 1.6 | 0.00 | 0.20 | 0.00 | 82 | 1018.4 |
| 20260506101028 | 13 | 0 | 0.0 | 3.2 | 0.00 | 0.20 | 0.00 | 82 | 1018.4 |
| 20260506100526 | 13 | 0 | 0.0 | 3.2 | 0.00 | 0.20 | 0.00 | 82 | 1018.4 |
| 20260506100044 | 13 | 28 | 0.0 | 3.2 | 0.00 | 0.20 | 0.00 | 82 | 1018.4 |
| 20260506095527 | 13 | 0 | 0.0 | 0.0 | 0.00 | 0.20 | 0.00 | 81 | 1018.4 |
| 20260506095027 | 13 | 0 | 0.0 | 0.0 | 0.00 | 0.20 | 0.00 | 81 | 1018.3 |
| 20260506094540 | 13 | 0 | 0.0 | 0.0 | 0.00 | 0.20 | 0.00 | 81 | 1018.3 |
| 20260506094026 | 13 | 0 | 0.0 | 0.0 | 0.00 | 0.20 | 0.00 | 81 | 1018.3 |
| 20260506093526 | 13 | 0 | 0.0 | 1.6 | 0.00 | 0.20 | 0.00 | 81 | 1018.2 |
| 20260506093038 | 13 | 0 | 0.0 | 1.6 | 0.00 | 0.20 | 0.00 | 80 | 1018.3 |
| 20260506092526 | 13 | 0 | 0.0 | 1.6 | 0.00 | 0.20 | 0.00 | 80 | 1018.4 |
| 20260506092027 | 13 | 0 | 0.0 | 4.8 | 0.00 | 0.20 | 0.00 | 80 | 1018.3 |
| 20260506091536 | 13 | 0 | 0.0 | 4.8 | 0.00 | 0.20 | 0.00 | 79 | 1018.3 |
| 20260506091030 | 13 | 288 | 0.0 | 3.2 | 0.00 | 0.20 | 0.00 | 79 | 1018.4 |
| 20260506090530 | 13 | 342 | 0.0 | 4.8 | 0.00 | 0.20 | 0.00 | 79 | 1018.4 |
| 20260506090046 | 13 | 350 | 0.0 | 4.8 | 0.00 | 0.20 | 0.00 | 79 | 1018.4 |
| 20260506085529 | 13 | 321 | 1.6 | 4.8 | 0.00 | 0.20 | 0.00 | 79 | 1018.4 |
| 20260506085027 | 13 | 315 | 1.6 | 4.8 | 0.00 | 0.20 | 0.00 | 79 | 1018.4 |
| 20260506084542 | 13 | 0 | 0.0 | 1.6 | 0.00 | 0.20 | 0.00 | 79 | 1018.4 |
| 20260506084031 | 13 | 0 | 0.0 | 1.6 | 0.00 | 0.20 | 0.00 | 79 | 1018.4 |
| 20260506083527 | 13 | 0 | 0.0 | 4.8 | 0.00 | 0.20 | 0.00 | 79 | 1018.4 |
| 20260506083043 | 13 | 0 | 0.0 | 4.8 | 0.00 | 0.20 | 0.00 | 79 | 1018.4 |
| 20260506082526 | 13 | 344 | 0.0 | 4.8 | 0.00 | 0.20 | 0.00 | 79 | 1018.5 |
| 20260506082026 | 13 | 341 | 0.0 | 3.2 | 0.00 | 0.20 | 0.00 | 79 | 1018.6 |
| 20260506081541 | 13 | 0 | 0.0 | 3.2 | 0.00 | 0.20 | 0.00 | 79 | 1018.6 |
| 20260506081029 | 13 | 311 | 0.0 | 3.2 | 0.00 | 0.20 | 0.00 | 79 | 1018.5 |
| 20260506080526 | 13 | 322 | 0.0 | 3.2 | 0.00 | 0.20 | 0.00 | 79 | 1018.6 |
| 20260506073042 | 13 | 303 | 1.6 | 6.4 | 0.00 | 0.20 | 0.00 | 80 | 1018.3 |
| 20260506072527 | 13 | 290 | 1.6 | 8.0 | 0.00 | 0.20 | 0.00 | 80 | 1018.3 |
| 20260506072026 | 13 | 291 | 3.2 | 8.0 | 0.00 | 0.20 | 0.00 | 80 | 1018.2 |
| 20260506071541 | 13 | 300 | 1.6 | 6.4 | 0.00 | 0.20 | 0.00 | 79 | 1018.2 |
| 20260506071026 | 13 | 299 | 1.6 | 6.4 | 0.00 | 0.20 | 0.00 | 79 | 1018.1 |
| 20260506070526 | 13 | 339 | 3.2 | 6.4 | 0.00 | 0.20 | 0.00 | 79 | 1018.1 |
| 20260506062027 | 14 | 0 | 0.0 | 6.4 | 0.00 | 0.20 | 0.20 | 78 | 1018.0 |
| 20260506061537 | 14 | 309 | 1.6 | 9.7 | 0.00 | 0.20 | 0.20 | 78 | 1017.9 |
| 20260506061028 | 14 | 288 | 1.6 | 9.7 | 0.00 | 0.20 | 0.20 | 78 | 1017.9 |
| 20260506060526 | 14 | 286 | 1.6 | 9.7 | 0.00 | 0.20 | 0.20 | 78 | 1017.9 |
| 20260506051026 | 14 | 277 | 3.2 | 11.3 | 0.00 | 0.20 | 0.20 | 80 | 1017.6 |
| 20260506050526 | 14 | 255 | 4.8 | 11.3 | 0.00 | 0.20 | 0.20 | 80 | 1017.5 |
| 20260506045026 | 14 | 265 | 3.2 | 9.7 | 0.00 | 0.20 | 0.20 | 79 | 1017.4 |
| 20260506044542 | 14 | 261 | 3.2 | 9.7 | 0.00 | 0.20 | 0.20 | 79 | 1017.3 |
| 20260506044029 | 14 | 300 | 3.2 | 9.7 | 0.00 | 0.20 | 0.20 | 79 | 1017.2 |
| 20260506043528 | 14 | 264 | 3.2 | 16.1 | 0.00 | 0.20 | 0.20 | 79 | 1017.2 |
| 20260506043048 | 14 | 253 | 4.8 | 16.1 | 0.00 | 0.20 | 0.20 | 79 | 1017.2 |
| 20260506042530 | 14 | 265 | 6.4 | 14.5 | 0.00 | 0.20 | 0.20 | 79 | 1017.2 |
| 20260506042026 | 14 | 284 | 4.8 | 12.9 | 0.00 | 0.20 | 0.20 | 79 | 1017.1 |
| 20260506041544 | 14 | 258 | 4.8 | 12.9 | 0.00 | 0.20 | 0.20 | 79 | 1017.1 |
| 20260506041026 | 14 | 274 | 6.4 | 12.9 | 0.00 | 0.20 | 0.20 | 78 | 1017.0 |
| 20260506040527 | 14 | 298 | 1.6 | 14.5 | 0.00 | 0.20 | 0.20 | 78 | 1017.0 |
| 20260506040047 | 14 | 273 | 4.8 | 14.5 | 0.00 | 0.20 | 0.20 | 78 | 1017.0 |
| 20260506035526 | 14 | 306 | 3.2 | 11.3 | 0.00 | 0.20 | 0.20 | 78 | 1016.8 |
| 20260506035026 | 14 | 265 | 3.2 | 12.9 | 0.00 | 0.20 | 0.20 | 77 | 1016.7 |
| 20260506034544 | 14 | 0 | 3.2 | 14.5 | 0.00 | 0.20 | 0.20 | 77 | 1016.6 |
| 20260506034027 | 14 | 288 | 6.4 | 14.5 | 0.00 | 0.20 | 0.20 | 77 | 1016.6 |
| 20260506033527 | 15 | 258 | 4.8 | 14.5 | 0.00 | 0.20 | 0.20 | 77 | 1016.5 |
| 20260506033043 | 15 | 306 | 3.2 | 12.9 | 0.00 | 0.20 | 0.20 | 77 | 1016.6 |
| 20260506032527 | 15 | 285 | 3.2 | 12.9 | 0.00 | 0.20 | 0.20 | 77 | 1016.5 |
| 20260506032027 | 15 | 307 | 4.8 | 14.5 | 0.00 | 0.20 | 0.20 | 77 | 1016.4 |
| 20260506031544 | 15 | 260 | 6.4 | 14.5 | 0.00 | 0.20 | 0.20 | 76 | 1016.3 |
| 20260506031027 | 15 | 255 | 4.8 | 14.5 | 0.00 | 0.20 | 0.20 | 76 | 1016.3 |
| 20260506030526 | 15 | 302 | 6.4 | 12.9 | 0.00 | 0.20 | 0.20 | 76 | 1016.2 |
| 20260506030041 | 15 | 267 | 3.2 | 14.5 | 0.00 | 0.20 | 0.20 | 76 | 1016.2 |
| 20260506025526 | 15 | 292 | 4.8 | 14.5 | 0.00 | 0.20 | 0.20 | 76 | 1016.0 |
| 20260506025026 | 15 | 305 | 4.8 | 12.9 | 0.00 | 0.20 | 0.20 | 76 | 1016.0 |
| 20260506024546 | 15 | 252 | 4.8 | 19.3 | 0.00 | 0.20 | 0.20 | 76 | 1016.1 |
| 20260506024027 | 15 | 267 | 8.0 | 19.3 | 0.00 | 0.20 | 0.20 | 75 | 1016.0 |
| 20260506023529 | 15 | 274 | 4.8 | 12.9 | 0.00 | 0.20 | 0.20 | 75 | 1015.9 |
| 20260506023038 | 15 | 286 | 4.8 | 16.1 | 0.00 | 0.20 | 0.20 | 74 | 1015.8 |
| 20260506022526 | 15 | 293 | 4.8 | 16.1 | 0.00 | 0.20 | 0.20 | 74 | 1015.8 |
| 20260506022026 | 15 | 277 | 4.8 | 12.9 | 0.00 | 0.20 | 0.20 | 73 | 1015.7 |
| 20260506021550 | 15 | 306 | 4.8 | 11.3 | 0.00 | 0.20 | 0.20 | 73 | 1015.7 |
| 20260506021026 | 15 | 327 | 1.6 | 11.3 | 0.00 | 0.20 | 0.20 | 73 | 1015.6 |
| 20260506020530 | 15 | 290 | 3.2 | 11.3 | 0.00 | 0.20 | 0.20 | 73 | 1015.6 |
| 20260506020041 | 15 | 313 | 3.2 | 8.0 | 0.00 | 0.20 | 0.20 | 73 | 1015.6 |
| 20260506015527 | 15 | 304 | 3.2 | 11.3 | 0.00 | 0.20 | 0.20 | 73 | 1015.6 |
| 20260506015027 | 15 | 279 | 3.2 | 11.3 | 0.00 | 0.20 | 0.20 | 73 | 1015.5 |
| 20260506014542 | 16 | 237 | 3.2 | 11.3 | 0.00 | 0.20 | 0.20 | 73 | 1015.5 |
| 20260506014026 | 16 | 313 | 3.2 | 11.3 | 0.00 | 0.20 | 0.20 | 72 | 1015.4 |
| 20260506013526 | 16 | 251 | 3.2 | 14.5 | 0.00 | 0.20 | 0.20 | 72 | 1015.5 |
| 20260506013044 | 16 | 295 | 4.8 | 14.5 | 0.00 | 0.20 | 0.20 | 72 | 1015.5 |
| 20260506012527 | 16 | 267 | 6.4 | 14.5 | 0.00 | 0.20 | 0.20 | 72 | 1015.5 |
| 20260506012028 | 16 | 267 | 6.4 | 14.5 | 0.00 | 0.20 | 0.20 | 72 | 1015.5 |
| 20260506011545 | 16 | 253 | 3.2 | 14.5 | 0.00 | 0.20 | 0.20 | 72 | 1015.5 |
| 20260506011030 | 16 | 261 | 4.8 | 12.9 | 0.00 | 0.20 | 0.20 | 72 | 1015.5 |
| 20260506010526 | 16 | 262 | 3.2 | 11.3 | 0.00 | 0.20 | 0.20 | 72 | 1015.5 |
| 20260506010047 | 16 | 259 | 4.8 | 12.9 | 0.00 | 0.20 | 0.20 | 72 | 1015.5 |
| 20260506005526 | 16 | 247 | 3.2 | 12.9 | 0.00 | 0.20 | 0.20 | 71 | 1015.5 |
| 20260506005031 | 16 | 292 | 3.2 | 14.5 | 0.00 | 0.20 | 0.20 | 71 | 1015.5 |
| 20260506004544 | 16 | 264 | 6.4 | 14.5 | 0.00 | 0.20 | 0.20 | 71 | 1015.4 |
| 20260506004026 | 16 | 285 | 6.4 | 12.9 | 0.00 | 0.20 | 0.20 | 71 | 1015.4 |
| 20260506003527 | 16 | 279 | 6.4 | 12.9 | 0.00 | 0.20 | 0.20 | 70 | 1015.4 |
| 20260506003042 | 16 | 284 | 4.8 | 14.5 | 0.00 | 0.20 | 0.20 | 70 | 1015.4 |
| 20260506002530 | 16 | 292 | 4.8 | 14.5 | 0.00 | 0.20 | 0.20 | 69 | 1015.3 |
| 20260506002027 | 16 | 277 | 6.4 | 14.5 | 0.00 | 0.20 | 0.20 | 69 | 1015.3 |
| 20260506001542 | 16 | 264 | 6.4 | 17.7 | 0.00 | 0.20 | 0.20 | 70 | 1015.2 |
| 20260506001027 | 16 | 275 | 6.4 | 17.7 | 0.00 | 0.20 | 0.20 | 70 | 1015.2 |
| 20260506000527 | 16 | 309 | 6.4 | 16.1 | 0.00 | 0.20 | 0.20 | 69 | 1015.1 |
| 20260506000039 | 16 | 277 | 4.8 | 11.3 | 0.00 | 0.20 | 0.20 | 69 | 1015.1 |
| 20260505235526 | 16 | 265 | 3.2 | 11.3 | 0.00 | 0.20 | 0.20 | 69 | 1015.1 |
| 20260505235026 | 16 | 292 | 4.8 | 16.1 | 0.00 | 0.20 | 0.20 | 69 | 1015.1 |
| 20260505234602 | 16 | 233 | 8.0 | 17.7 | 0.00 | 0.20 | 0.20 | 69 | 1015.1 |
| 20260505234026 | 16 | 267 | 4.8 | 17.7 | 0.00 | 0.20 | 0.20 | 70 | 1015.2 |
| 20260505233526 | 16 | 288 | 6.4 | 16.1 | 0.00 | 0.20 | 0.20 | 70 | 1015.2 |
| 20260505233038 | 16 | 281 | 8.0 | 16.1 | 0.00 | 0.20 | 0.20 | 70 | 1015.1 |
| 20260505232602 | 16 | 277 | 1.6 | 12.9 | 0.00 | 0.20 | 0.20 | 71 | 1015.2 |
| 20260505232026 | 16 | 265 | 4.8 | 12.9 | 0.00 | 0.20 | 0.20 | 70 | 1015.2 |
| 20260505231538 | 16 | 254 | 1.6 | 8.0 | 0.00 | 0.20 | 0.20 | 71 | 1015.2 |
| 20260505231025 | 16 | 296 | 3.2 | 12.9 | 0.00 | 0.20 | 0.20 | 71 | 1015.2 |
| 20260505230525 | 16 | 311 | 4.8 | 12.9 | 0.00 | 0.20 | 0.20 | 71 | 1015.2 |
| 20260505230042 | 16 | 279 | 3.2 | 12.9 | 0.00 | 0.20 | 0.20 | 71 | 1015.3 |
| 20260505225526 | 16 | 277 | 6.4 | 12.9 | 0.00 | 0.20 | 0.20 | 70 | 1015.2 |
| 20260505225026 | 16 | 271 | 3.2 | 16.1 | 0.00 | 0.20 | 0.20 | 70 | 1015.2 |
| 20260505224540 | 16 | 288 | 3.2 | 16.1 | 0.00 | 0.20 | 0.20 | 70 | 1015.2 |
| 20260505224025 | 16 | 304 | 6.4 | 16.1 | 0.00 | 0.20 | 0.20 | 70 | 1015.2 |
| 20260505223526 | 16 | 290 | 4.8 | 11.3 | 0.00 | 0.20 | 0.20 | 69 | 1015.3 |
| 20260505223044 | 16 | 270 | 4.8 | 12.9 | 0.00 | 0.20 | 0.20 | 71 | 1015.3 |
| 20260505222525 | 16 | 325 | 3.2 | 14.5 | 0.00 | 0.20 | 0.20 | 71 | 1015.2 |
| 20260505222026 | 16 | 0 | 4.8 | 14.5 | 0.00 | 0.20 | 0.20 | 71 | 1015.3 |
| 20260505221539 | 16 | 268 | 4.8 | 12.9 | 0.00 | 0.20 | 0.20 | 70 | 1015.3 |
| 20260505221025 | 16 | 259 | 4.8 | 12.9 | 0.00 | 0.20 | 0.20 | 72 | 1015.4 |
| 20260505220526 | 16 | 252 | 4.8 | 14.5 | 0.00 | 0.20 | 0.20 | 72 | 1015.5 |
| 20260505220040 | 16 | 0 | 6.4 | 19.3 | 0.00 | 0.20 | 0.20 | 71 | 1015.4 |
| 20260505215528 | 16 | 277 | 8.0 | 19.3 | 0.00 | 0.20 | 0.20 | 71 | 1015.5 |
| 20260505215026 | 16 | 259 | 4.8 | 14.5 | 0.00 | 0.20 | 0.20 | 71 | 1015.6 |
| 20260505214549 | 16 | 279 | 6.4 | 14.5 | 0.00 | 0.20 | 0.20 | 71 | 1015.5 |
| 20260505214028 | 16 | 252 | 4.8 | 14.5 | 0.00 | 0.20 | 0.20 | 71 | 1015.6 |
| 20260505213525 | 16 | 278 | 4.8 | 14.5 | 0.00 | 0.20 | 0.20 | 71 | 1015.7 |